�N����,����,�~����,�C��,���x,�C��,����,���ϕ���,�ő�u�ԕ���,�ő厞����,���˗�,�I�_���x,�n�����x,�ő啗���N��,DTYPE
"16/08/11","00:10",0.0,21.7,80.6,1004.8,309.1,1.2,1.7,324.1,0.00,18.3,25.8,"00:03:36",1
"16/08/11","00:20",0.0,21.7,81.4,1004.5,305.2,1.3,1.9,322.9,0.00,18.4,25.5,"00:11:28",1
"16/08/11","00:30",0.0,21.8,81.6,1004.5,310.4,1.3,2.1,308.0,0.00,18.6,25.7,"00:22:24",1
"16/08/11","00:40",0.0,21.8,81.5,1004.3,334.0,1.6,3.2,346.6,0.00,18.5,25.5,"00:32:40",1
"16/08/11","00:50",0.0,21.6,81.9,1004.3,337.0,1.6,2.5,333.9,0.00,18.4,25.6,"00:48:32",1
"16/08/11","01:00",0.0,21.4,82.5,1004.3,331.6,1.6,2.4,343.3,0.00,18.3,25.6,"00:51:28",1
"16/08/11","01:10",0.0,21.5,82.2,1004.3,318.1,1.3,3.6,344.7,0.00,18.4,25.4,"01:00:40",1
"16/08/11","01:20",0.0,21.5,81.2,1004.5,323.9,1.5,2.8,343.4,0.00,18.2,25.2,"01:18:16",1
"16/08/11","01:30",0.0,21.3,81.5,1004.3,333.3,1.6,3.4,342.1,0.00,18.0,25.3,"01:25:28",1
"16/08/11","01:40",0.0,21.2,81.4,1004.3,335.3,1.8,2.7,340.9,0.00,17.9,25.2,"01:33:04",1
"16/08/11","01:50",0.0,20.9,81.7,1004.3,335.4,1.7,2.8,344.3,0.00,17.7,25.2,"01:40:40",1
"16/08/11","02:00",0.0,20.8,81.9,1004.5,336.2,1.8,3.3,337.2,0.00,17.6,25.0,"01:54:48",1
"16/08/11","02:10",0.0,20.8,82.9,1004.5,319.1,1.3,2.6,332.1,0.00,17.8,24.9,"02:00:08",1
"16/08/11","02:20",0.0,20.9,82.2,1004.3,339.2,1.7,2.7,339.2,0.00,17.8,25.0,"02:14:32",1
"16/08/11","02:30",0.0,20.8,82.0,1004.3,333.7,1.5,2.5,314.9,0.00,17.7,24.9,"02:26:24",1
"16/08/11","02:40",0.0,20.9,81.4,1004.3,314.3,1.1,1.8,312.0,0.00,17.6,25.0,"02:31:36",1
"16/08/11","02:50",0.0,20.9,81.1,1003.8,321.4,1.2,2.2,342.9,0.00,17.6,25.0,"02:46:32",1
"16/08/11","03:00",0.0,20.8,81.7,1004.1,329.5,1.5,2.9,333.7,0.00,17.6,24.9,"02:56:56",1
"16/08/11","03:10",0.0,20.7,82.3,1004.3,318.6,1.5,3.2,344.4,0.00,17.6,24.7,"03:01:52",1
"16/08/11","03:20",0.0,20.7,82.2,1004.1,300.2,1.0,1.4,312.9,0.00,17.6,24.8,"03:13:28",1
"16/08/11","03:30",0.0,20.7,82.9,1004.3,311.0,1.2,2.0,323.8,0.00,17.7,24.7,"03:29:12",1
"16/08/11","03:40",0.0,20.6,83.5,1004.1,328.7,1.6,3.1,352.2,0.00,17.7,24.7,"03:36:16",1
"16/08/11","03:50",0.0,20.6,84.4,1004.1,325.9,1.5,2.8,344.8,0.00,17.9,24.5,"03:46:16",1
"16/08/11","04:00",0.0,20.6,84.8,1004.1,317.4,1.3,2.4,8.3,0.00,18.0,24.7,"03:50:02",1
"16/08/11","04:10",0.0,20.7,84.8,1004.3,314.6,1.5,2.1,317.0,0.00,18.1,24.3,"04:02:40",1
"16/08/11","04:20",0.0,20.5,84.0,1004.3,323.9,1.5,2.1,322.7,0.00,17.7,24.4,"04:11:44",1
"16/08/11","04:30",0.0,20.4,83.3,1004.3,336.0,1.6,3.3,344.5,0.00,17.5,24.4,"04:22:00",1
"16/08/11","04:40",0.0,20.3,83.7,1004.3,334.9,1.5,2.6,329.2,0.00,17.5,24.6,"04:35:20",1
"16/08/11","04:50",0.0,20.2,85.6,1005.0,332.8,1.3,2.4,335.4,0.00,17.8,24.4,"04:43:52",1
"16/08/11","05:00",0.0,20.2,86.7,1004.8,338.2,1.5,2.8,340.9,0.00,18.0,24.3,"04:50:48",1
"16/08/11","05:10",0.0,20.1,87.1,1005.0,336.4,1.7,3.1,352.6,0.00,17.9,24.3,"05:08:08",1
"16/08/11","05:20",0.0,20.2,87.5,1004.8,333.5,1.7,4.2,354.4,0.00,18.1,24.2,"05:19:52",1
"16/08/11","05:30",0.0,20.2,87.5,1004.8,327.0,1.6,3.3,328.0,0.00,18.1,24.4,"05:20:24",1
"16/08/11","05:40",0.0,20.2,86.0,1005.0,329.3,1.6,3.1,352.8,0.00,17.8,24.2,"05:32:08",1
"16/08/11","05:50",0.0,20.0,83.7,1005.0,340.0,1.7,3.2,344.7,0.00,17.2,24.2,"05:42:40",1
"16/08/11","06:00",0.0,20.2,85.2,1005.2,322.7,1.3,2.8,325.4,0.00,17.7,24.2,"05:58:32",1
"16/08/11","06:10",0.0,20.7,85.1,1005.2,329.8,1.7,3.4,350.4,0.01,18.1,24.1,"06:09:04",1
"16/08/11","06:20",0.0,20.9,82.2,1005.5,341.1,2.0,3.1,351.0,0.02,17.8,23.9,"06:10:08",1
"16/08/11","06:30",0.0,21.2,80.8,1005.5,339.4,1.8,3.2,350.4,0.02,17.8,24.3,"06:20:16",1
"16/08/11","06:40",0.0,21.5,80.0,1005.2,345.8,1.5,2.9,349.9,0.03,17.9,24.4,"06:36:48",1
"16/08/11","06:50",0.0,21.9,79.4,1005.5,336.8,1.2,2.8,346.2,0.05,18.2,24.2,"06:42:48",1
"16/08/11","07:00",0.0,22.7,75.7,1005.7,338.9,1.1,2.9,349.9,0.08,18.2,24.4,"06:52:48",1
"16/08/11","07:10",0.0,23.1,73.0,1005.2,350.9,1.3,3.4,346.9,0.10,18.0,24.1,"07:08:40",1
"16/08/11","07:20",0.0,23.7,73.7,1005.2,346.0,1.6,2.9,342.3,0.12,18.8,24.4,"07:12:40",1
"16/08/11","07:30",0.0,24.3,71.5,1005.2,343.9,1.2,2.8,345.1,0.14,18.9,24.6,"07:27:36",1
"16/08/11","07:40",0.0,25.1,68.0,1005.0,343.7,0.8,1.8,308.8,0.17,18.8,24.7,"07:31:04",1
"16/08/11","07:50",0.0,25.4,66.9,1005.2,300.4,0.5,1.6,350.6,0.18,18.8,24.6,"07:40:24",1
"16/08/11","08:00",0.0,26.1,64.6,1004.8,352.1,0.5,2.1,358.4,0.21,18.9,24.8,"07:50:16",1
"16/08/11","08:10",0.0,25.8,65.6,1004.5,348.5,0.8,2.4,348.6,0.20,18.9,25.1,"08:01:12",1
"16/08/11","08:20",0.0,25.9,65.1,1004.8,18.5,0.3,1.1,54.9,0.18,18.9,25.2,"08:10:16",1
"16/08/11","08:30",0.0,26.2,66.5,1004.5,355.9,0.6,1.4,345.9,0.20,19.5,25.0,"08:22:08",1
"16/08/11","08:40",0.0,27.0,63.4,1004.1,3.6,1.0,2.5,348.7,0.33,19.5,25.5,"08:35:20",1
"16/08/11","08:50",0.0,27.6,63.4,1004.1,356.7,0.7,2.1,351.8,0.30,20.1,25.6,"08:42:16",1
"16/08/11","09:00",0.0,28.0,59.1,1004.1,237.7,0.5,1.4,328.0,0.30,19.3,25.9,"08:50:24",1
"16/08/11","09:10",0.0,27.9,57.8,1004.5,17.7,0.6,2.4,353.4,0.30,18.9,25.9,"09:07:36",1
"16/08/11","09:20",0.0,28.5,56.1,1005.0,189.8,0.5,2.5,220.6,0.37,18.9,26.2,"09:14:40",1
"16/08/11","09:30",0.0,29.3,53.4,1005.5,144.0,0.7,1.7,178.4,0.42,18.9,26.5,"09:24:40",1
"16/08/11","09:40",0.0,29.0,53.8,1005.7,27.7,1.1,2.2,32.1,0.42,18.7,26.6,"09:30:24",1
"16/08/11","09:50",0.0,29.5,51.8,1005.2,67.8,0.8,1.8,7.3,0.44,18.6,26.9,"09:41:36",1
"16/08/11","10:00",0.0,29.4,52.1,1006.0,126.3,1.0,1.9,132.4,0.37,18.6,27.1,"09:54:24",1
"16/08/11","10:10",0.0,29.4,53.0,1005.7,32.6,1.0,2.1,68.4,0.35,18.9,27.3,"10:02:56",1
"16/08/11","10:20",0.0,29.7,50.6,1006.0,37.6,0.8,2.2,358.1,0.38,18.4,27.5,"10:15:36",1
"16/08/11","10:30",0.0,29.5,51.6,1005.5,104.4,0.7,1.7,21.9,0.30,18.5,27.7,"10:23:52",1
"16/08/11","10:40",0.0,30.5,52.1,1005.5,85.6,0.6,1.6,22.1,0.39,19.6,27.8,"10:30:40",1
"16/08/11","10:50",0.0,30.7,48.5,1005.5,35.8,1.0,2.1,47.5,0.47,18.6,28.0,"10:42:48",1
"16/08/11","11:00",0.0,31.4,51.3,1005.7,149.5,0.6,1.6,10.1,0.50,20.2,28.3,"10:59:04",1
"16/08/11","11:10",0.0,31.4,48.2,1006.0,38.3,0.8,2.5,46.8,0.46,19.2,28.6,"11:00:02",1
"16/08/11","11:20",0.0,31.3,51.0,1005.5,50.1,0.6,2.5,213.2,0.45,20.0,28.7,"11:17:20",1
"16/08/11","11:30",0.0,32.2,52.3,1005.5,73.2,0.6,2.7,220.2,0.52,21.2,29.1,"11:29:04",1
"16/08/11","11:40",0.0,32.2,50.5,1005.7,341.4,0.7,2.4,16.2,0.52,20.7,29.5,"11:31:36",1
"16/08/11","11:50",0.0,32.6,50.3,1005.2,150.9,0.7,2.0,198.1,0.54,21.0,29.6,"11:42:08",1
"16/08/11","12:00",0.0,32.2,52.9,1005.2,98.4,1.2,2.7,222.2,0.55,21.4,29.8,"11:58:40",1
"16/08/11","12:10",0.0,33.1,47.3,1005.2,143.2,0.8,2.2,213.5,0.57,20.4,30.2,"12:02:00",1
"16/08/11","12:20",0.0,32.7,48.4,1005.2,133.1,0.8,2.0,62.9,0.43,20.4,30.5,"12:10:08",1
"16/08/11","12:30",0.0,33.5,49.2,1005.0,175.3,1.0,2.4,203.7,0.56,21.4,30.6,"12:26:24",1
"16/08/11","12:40",0.0,33.2,49.9,1005.0,319.4,1.0,2.8,232.6,0.50,21.4,30.8,"12:39:28",1
"16/08/11","12:50",0.0,32.4,49.5,1004.5,229.3,1.5,3.5,215.0,0.32,20.5,30.8,"12:41:36",1
"16/08/11","13:00",0.0,33.7,48.1,1004.5,223.0,1.3,3.7,206.8,0.55,21.2,31.0,"12:59:52",1
"16/08/11","13:10",0.0,33.4,49.3,1004.3,210.0,1.6,4.0,219.7,0.55,21.4,31.2,"13:02:08",1
"16/08/11","13:20",0.0,33.2,49.5,1004.8,214.6,1.5,2.9,215.6,0.45,21.3,31.3,"13:17:20",1
"16/08/11","13:30",0.0,33.3,50.0,1004.3,205.0,1.2,2.7,179.9,0.43,21.5,31.5,"13:28:48",1
"16/08/11","13:40",0.0,34.0,45.9,1004.3,220.0,1.2,3.5,221.2,0.50,20.8,31.6,"13:38:48",1
"16/08/11","13:50",0.0,34.2,43.4,1004.5,202.5,2.2,4.3,229.5,0.50,20.0,31.4,"13:40:16",1
"16/08/11","14:00",0.0,33.7,43.9,1004.3,173.8,1.6,3.4,200.4,0.40,19.8,31.6,"13:51:44",1
"16/08/11","14:10",0.0,34.0,43.8,1004.1,218.2,1.3,3.7,204.7,0.33,20.0,31.7,"14:08:00",1
"16/08/11","14:20",0.0,35.0,41.7,1003.8,234.3,0.6,2.9,215.3,0.46,20.1,31.5,"14:10:48",1
"16/08/11","14:30",0.0,34.9,41.4,1004.1,233.9,1.1,4.1,215.1,0.45,19.9,31.6,"14:23:20",1
"16/08/11","14:40",0.0,35.5,40.0,1004.3,236.8,0.8,4.1,224.5,0.45,19.9,31.7,"14:31:52",1
"16/08/11","14:50",0.0,35.6,39.7,1003.8,216.6,0.8,3.1,350.0,0.42,19.8,31.7,"14:45:12",1
"16/08/11","15:00",0.0,35.8,41.0,1003.6,201.7,0.6,3.3,214.9,0.41,20.5,32.0,"14:55:44",1
"16/08/11","15:10",0.0,35.6,41.0,1004.1,234.4,0.6,2.1,244.6,0.42,20.4,32.2,"15:00:32",1
"16/08/11","15:20",0.0,35.9,40.2,1003.8,194.0,0.6,2.0,215.7,0.42,20.3,32.2,"15:16:24",1
"16/08/11","15:30",0.0,35.4,40.9,1003.8,250.2,0.7,2.7,219.4,0.39,20.1,32.3,"15:28:40",1
"16/08/11","15:40",0.0,35.3,42.6,1003.6,312.4,0.8,2.5,226.3,0.34,20.7,32.2,"15:30:16",1
"16/08/11","15:50",0.0,35.1,44.2,1003.6,313.4,0.6,2.1,306.3,0.30,21.1,32.6,"15:42:56",1
"16/08/11","16:00",0.0,34.9,43.5,1003.1,255.1,0.7,2.5,213.4,0.32,20.7,32.0,"15:54:48",1
"16/08/11","16:10",0.0,34.6,44.8,1003.4,229.8,1.3,4.2,221.0,0.31,20.9,32.1,"16:09:20",1
"16/08/11","16:20",0.0,34.2,44.3,1003.1,230.5,0.8,2.8,236.5,0.26,20.4,31.9,"16:16:24",1
"16/08/11","16:30",0.0,33.9,44.2,1003.4,266.8,0.6,1.7,218.1,0.20,20.0,31.7,"16:23:20",1
"16/08/11","16:40",0.0,33.5,45.0,1002.6,252.9,0.5,1.8,226.7,0.18,20.0,31.6,"16:39:04",1
"16/08/11","16:50",0.0,33.5,45.7,1002.4,275.1,0.5,1.2,81.0,0.07,20.2,31.5,"16:42:08",1
"16/08/11","17:00",0.0,32.7,46.2,1001.9,248.8,0.6,1.3,240.2,0.05,19.7,31.3,"16:51:04",1
"16/08/11","17:10",0.0,32.2,45.7,1001.7,255.0,0.5,1.9,345.4,0.04,19.1,31.1,"17:03:20",1
"16/08/11","17:20",0.0,31.9,47.8,1001.5,338.1,0.5,1.2,21.5,0.04,19.5,30.8,"17:12:00",1
"16/08/11","17:30",0.0,31.6,48.6,1001.5,6.0,0.7,2.0,12.5,0.03,19.5,30.8,"17:25:12",1
"16/08/11","17:40",0.0,31.1,46.8,1001.5,352.5,0.6,1.6,27.3,0.02,18.4,30.8,"17:35:36",1
"16/08/11","17:50",0.0,30.7,48.0,1001.2,14.2,1.1,2.5,12.4,0.01,18.5,30.4,"17:47:04",1
"16/08/11","18:00",0.0,30.5,49.9,1001.0,11.2,1.2,2.7,0.8,0.01,18.9,30.4,"17:52:40",1
"16/08/11","18:10",0.0,30.3,51.1,1001.0,14.6,1.1,2.7,11.2,0.01,19.1,30.0,"18:09:28",1
"16/08/11","18:20",0.0,30.0,51.6,1001.0,4.7,1.5,3.2,5.5,0.01,19.0,30.0,"18:17:44",1
"16/08/11","18:30",0.0,29.7,52.9,1000.5,2.6,1.1,4.0,354.0,0.00,19.1,29.9,"18:28:40",1
"16/08/11","18:40",0.0,29.2,53.9,1000.5,356.0,0.8,2.5,9.1,0.00,19.0,29.7,"18:38:24",1
"16/08/11","18:50",0.0,28.7,55.3,1000.3,343.2,1.2,3.3,352.9,0.00,18.9,29.6,"18:44:56",1
"16/08/11","19:00",0.0,28.3,56.0,1001.0,350.7,1.3,4.1,347.8,0.00,18.7,29.5,"18:58:32",1
"16/08/11","19:10",0.0,28.0,56.3,1001.0,349.2,1.6,4.7,343.2,0.00,18.5,29.3,"19:08:24",1
"16/08/11","19:20",0.0,27.9,57.1,1001.5,341.3,1.3,3.4,354.6,0.00,18.7,29.1,"19:10:24",1
"16/08/11","19:30",0.0,27.6,56.4,1002.2,342.5,1.3,3.6,343.5,0.00,18.2,29.1,"19:21:28",1
"16/08/11","19:40",0.0,27.4,56.5,1001.9,328.0,1.2,3.4,348.6,0.00,18.0,29.0,"19:37:36",1
"16/08/11","19:50",0.0,27.3,57.3,1002.2,333.6,1.3,2.9,353.0,0.00,18.2,28.5,"19:44:48",1
"16/08/11","20:00",0.0,27.1,57.5,1002.2,345.2,0.8,3.5,31.2,0.00,18.0,28.6,"19:51:12",1
"16/08/11","20:10",0.0,26.7,59.2,1002.4,249.2,0.3,1.2,341.5,0.00,18.1,28.5,"20:09:36",1
"16/08/11","20:20",0.0,26.4,59.1,1002.6,324.1,0.5,1.6,1.1,0.00,17.8,28.3,"20:18:32",1
"16/08/11","20:30",0.0,26.1,59.8,1002.6,331.4,0.5,1.1,344.5,0.00,17.7,28.3,"20:23:20",1
"16/08/11","20:40",0.0,25.7,61.6,1002.9,307.6,0.6,2.4,314.1,0.00,17.8,27.9,"20:38:56",1
"16/08/11","20:50",0.0,25.8,61.8,1002.6,325.4,1.1,3.1,353.3,0.00,18.0,28.0,"20:45:12",1
"16/08/11","21:00",0.0,25.7,62.6,1002.9,318.5,0.7,1.9,336.9,0.00,18.1,28.1,"20:51:36",1
"16/08/11","21:10",0.0,25.4,63.7,1002.9,308.4,0.5,1.1,325.5,0.00,18.1,27.8,"21:02:56",1
"16/08/11","21:20",0.0,25.1,65.4,1003.1,319.2,0.8,1.8,340.9,0.00,18.2,27.7,"21:18:56",1
"16/08/11","21:30",0.0,24.8,67.3,1003.1,329.4,1.0,1.6,347.0,0.00,18.4,27.4,"21:25:36",1
"16/08/11","21:40",0.0,24.5,68.1,1003.1,331.2,1.1,1.9,331.0,0.00,18.3,27.5,"21:35:52",1
"16/08/11","21:50",0.0,24.5,69.0,1003.4,330.3,1.2,2.4,332.1,0.00,18.5,27.3,"21:42:24",1
"16/08/11","22:00",0.0,24.5,68.9,1003.4,315.6,1.1,1.6,321.5,0.00,18.5,27.5,"21:53:12",1
"16/08/11","22:10",0.0,24.4,69.7,1003.4,334.7,1.5,3.2,338.3,0.00,18.5,27.1,"22:04:56",1
"16/08/11","22:20",0.0,24.2,71.1,1003.6,334.2,1.3,2.7,350.6,0.00,18.7,27.0,"22:10:24",1
"16/08/11","22:30",0.0,24.1,71.6,1003.4,339.2,1.5,2.8,345.8,0.00,18.7,27.1,"22:25:28",1
"16/08/11","22:40",0.0,24.0,72.2,1003.6,327.7,1.2,3.3,348.9,0.00,18.7,27.1,"22:32:00",1
"16/08/11","22:50",0.0,23.8,72.5,1003.6,325.4,1.2,2.7,354.7,0.00,18.6,27.1,"22:42:48",1
"16/08/11","23:00",0.0,23.7,72.6,1003.1,328.7,1.2,2.7,345.7,0.00,18.5,26.8,"22:53:52",1
"16/08/11","23:10",0.0,23.7,72.3,1003.8,323.4,1.3,3.5,348.9,0.00,18.5,26.8,"23:04:48",1
"16/08/11","23:20",0.0,23.6,72.5,1003.6,334.9,1.3,2.6,342.8,0.00,18.4,26.8,"23:14:24",1
"16/08/11","23:30",0.0,23.4,72.7,1003.6,334.4,1.3,2.5,344.4,0.00,18.3,26.5,"23:28:40",1
"16/08/11","23:40",0.0,23.1,72.9,1003.8,325.2,1.7,3.1,342.1,0.00,18.0,26.5,"23:34:56",1
"16/08/11","23:50",0.0,22.9,74.2,1003.6,325.1,1.3,2.6,343.6,0.00,18.1,26.3,"23:41:52",1
"16/08/11","24:00",0.0,22.8,75.2,1003.6,318.5,1.3,2.4,338.6,0.00,18.2,26.2,"23:52:16",1
